Weather History for CWGB - April, 2013

Change the Weather History Date:

Friday, April 12, 2013

  Actual Average Record
Temperature  
Mean Temperature 43 °F -  
Max Temperature 46 °F - - ()
Min Temperature 40 °F - - ()
Degree Days  
Heating Degree Days 22    
Moisture  
Dew Point 38 °F    
Average Humidity 80    
Maximum Humidity 84    
Minimum Humidity 75    
Precipitation  
Precipitation 0.01 in - - ()
Sea Level Pressure  
Sea Level Pressure 29.86 in    
Wind  
Wind Speed 13 mph ()    
Max Wind Speed 33 mph    
Max Gust Speed 34 mph    
T = Trace of Precipitation, MM = Missing Value Source: Averaged Metar Reports

Daily Weather History Graph

Daily Weather History Graph

Search for Another Location

Airport or City:

Trip Planner

Search our weather history database for the weather conditions in past years. The results will help you decide how hot, cold, wet, or windy it might be!

Date:

Astronomy

Apr. 12, 2013 Rise Set
Actual Time 6:30 AM PDT 8:05 PM PDT
Civil Twilight 5:56 AM PDT 8:38 PM PDT
Nautical Twilight 5:16 AM PDT 9:19 PM PDT
Astronomical Twilight 4:31 AM PDT 10:04 PM PDT
Moon 7:31 AM PDT (4/12) 10:55 PM PDT (4/12)
Length of Visible Light 14h 41m
Length of Day
13h 35m
Waxing Crescent, 6% of the Moon is Illuminated
Apr 12
Waxing Crescent
Apr 18
First Quarter
Apr 25
Full
May 2
Last Quarter
May 9
New

Hourly Weather History & Observations

Time (PDT) Temp. Windchill Dew Point Humidity Pressure Visibility Wind Dir Wind Speed Gust Speed Precip Events Conditions
12:00 AM 46.9 °F - 39.9 °F 77% 30.13 in - ESE 9.2 mph - N/A   Unknown
1:00 AM 44.6 °F - 38.7 °F 80% 30.12 in - South 2.3 mph - N/A   Unknown
2:00 AM 43.9 °F - 38.1 °F 80% 30.11 in - SSW 1.2 mph - N/A   Unknown
3:00 AM 44.1 °F 41.5 °F 37.8 °F 78% 30.08 in - SE 4.6 mph - N/A   Unknown
4:00 AM 45.0 °F 39.3 °F 39.6 °F 81% 30.05 in - SE 11.5 mph - N/A   Unknown
5:00 AM 44 °F - 39 °F 75% 30.03 in - SE 9.2 mph - -  
5:00 AM 44.2 °F 39.2 °F 38.7 °F 81% 30.03 in - SE 9.2 mph - N/A   Unknown
6:00 AM 43.7 °F 39.1 °F 38.3 °F 81% 30.00 in - SE 8.1 mph - N/A   Unknown
7:00 AM 43.3 °F 36.5 °F 37.4 °F 80% 29.97 in - ESE 13.8 mph - N/A   Unknown
8:00 AM 43.0 °F 35.4 °F 37.9 °F 82% 29.94 in - ESE 16.1 mph - N/A   Unknown
9:00 AM 43.7 °F 36.6 °F 36.9 °F 77% 29.92 in - ESE 15.0 mph - N/A   Unknown
10:00 AM 43.0 °F 36.4 °F 35.8 °F 76% 29.90 in - ESE 12.7 mph - N/A   Unknown
11:00 AM 41.7 °F 34.1 °F 36.5 °F 82% 29.90 in - ESE 15.0 mph - N/A   Unknown
12:00 PM 43.7 °F 35.0 °F 38.5 °F 82% 29.88 in - ESE 21.9 mph - N/A   Unknown
1:00 PM 43.3 °F 35.0 °F 37.0 °F 78% 29.84 in - ESE 19.6 mph - N/A   Unknown
2:00 PM 43.3 °F 34.2 °F 38.1 °F 82% 29.82 in - ESE 23.0 mph - N/A   Unknown
3:00 PM 43.7 °F 34.3 °F 38.8 °F 83% 29.77 in - ESE 25.3 mph - N/A   Unknown
4:00 PM 44.1 °F 34.8 °F 39.0 °F 82% 29.74 in - ESE 25.3 mph - N/A   Unknown
5:00 PM 44 °F - 39 °F 77% 29.69 in - ESE 29.9 mph - -  
5:00 PM 44.4 °F 34.5 °F 39.2 °F 82% 29.69 in - ESE 29.9 mph - N/A   Unknown
6:00 PM 44.2 °F 34.4 °F 39.6 °F 84% 29.65 in - ESE 28.8 mph 34.5 mph N/A   Unknown
7:00 PM 43.9 °F 33.2 °F 39.4 °F 84% 29.60 in - ESE 33.4 mph - N/A   Unknown
8:00 PM 44.1 °F 35.2 °F 39.4 °F 84% 29.58 in - ESE 23.0 mph 29.9 mph N/A   Unknown
10:00 PM 44.2 °F 36.4 °F 37.2 °F 76% 29.59 in - WSW 18.4 mph 25.3 mph N/A   Unknown
11:00 PM 40 °F - 36 °F 79% 29.63 in - NW 28.8 mph - -  
11:00 PM 40.3 °F 29.1 °F 35.8 °F 84% 29.63 in - NW 28.8 mph - 0.01 in   Unknown